Hourly Weather Roundup
Issued by NWS Central Illinois

Home | Current Version | Previous Version | Text Only | Print | Product List | Glossary On
Versions: 1 2 3 4 5 6 7 8 9 10 11 12 13 14 15 16 17 18 19 20 21 22 23 24 25 26 27 28 29 30 31 32 33 34 35 36 37 38 39 40 41 42 43 44 45 46 47 48 49 50
000
NZUS43 KILX 210510
HWRILX

AREA WEATHER ROUNDUP
NATIONAL WEATHER SERVICE, LINCOLN IL
1200 AM CDT TUE OCT 21 2014


CITY           SKY/WX    TMP DP  RH WIND       PRES   REMARKS
BLOOMINGTON    CLEAR     47  43  86 NE6       30.02S
CHAMPAIGN      MOCLDY    51  46  83 E5        30.00S
DECATUR        CLEAR     49  43  80 N7        30.01S
FLORA          CLEAR     51  43  74 CALM      30.00F
GALESBURG      CLEAR     42  39  90 NE5       30.02S
JACKSONVILLE   CLEAR     51  44  76 W5        30.01S
LACON          CLEAR     42  38  85 CALM      30.02S
LAWRENCEVILLE  CLEAR     50  45  83 NW5       29.99S
LITCHFIELD     CLEAR     46  42  86 CALM      30.01S
$$


CITY           SKY/WX    TMP DP  RH WIND       PRES   REMARKS
LINCOLN        CLEAR     50  44  78 N3        30.00R
MACOMB         CLEAR     45  41  86 NW7       30.03S
MATTOON        PTCLDY    51  44  77 N6        29.99S
MT CARMEL AP   CLEAR     50  45  81 W5        29.99F
OLNEY-NOBLE AP CLEAR     50  43  76 CALM      30.00S
PARIS          MOCLDY    51  47  84 CALM      30.00F
PEORIA         CLEAR     50  42  74 NE7       30.02S
PONTIAC        PTCLDY    48  43  81 CALM      30.01S
RANTOUL        PTCLDY    51  46  80 N3        30.01S
ROBINSON       MOCLDY    51  46  82 NW6       30.00F
SPRINGFIELD    CLEAR     47  42  83 CALM      30.00F
TAYLORVILLE    CLEAR     46  43  87 CALM      30.00S
$$

...REGIONAL REPORTS...


CITY           SKY/WX    TMP DP  RH WIND       PRES   REMARKS
CHICAGO O`HARE CLOUDY    52  42  69 N8        29.99F
KANKAKEE       CLOUDY    52  47  83 CALM      30.00F
MOLINE         CLEAR     46  41  82 CALM      30.03S
MOUNT VERNON   CLEAR     45  39  81 CALM      30.01F
PITTSFIELD     CLEAR     51  44  77 W3        30.03S
QUINCY         CLEAR     51  43  74 W6        30.02S
ROCKFORD       CLOUDY    50  41  71 NW5       30.04S
$$


CITY           SKY/WX    TMP DP  RH WIND       PRES   REMARKS
BURLINGTON     CLEAR     49  43  80 NW5       30.02S
CEDAR RAPIDS   CLEAR     48  41  76 NE7       30.04R
DES MOINES     CLEAR     52  42  69 CALM      30.05S
KIRKSVILLE     CLEAR     45  44  97 W5        30.05F
OTTUMWA        CLEAR     46  42  86 W5        30.04S
ST LOUIS       CLEAR     53  46  77 CALM      30.02F
$$


CITY           SKY/WX    TMP DP  RH WIND       PRES   REMARKS
TERRE HAUTE    PTCLDY    51  44  77 N6        29.98F
EVANSVILLE     CLEAR     57  44  62 NW6       29.99F
INDIANAPOLIS   PTCLDY    52  45  77 N8        29.96S
LAFAYETTE      CLOUDY    50  46  86 NW3       29.98S
MADISON        CLOUDY    50  39  66 N5        30.03S
MILWAUKEE      CLOUDY    49  42  77 NW6       30.02R
$$





USA.gov is the U.S. government's official web portal to all federal, state and local government web resources and services.